Year,Month,Day,Hour,Minute,Value (Times are PST for temperature in C)
2011,04,19,00,00,4.80
2011,04,19,00,01,4.80
2011,04,19,00,02,4.80
2011,04,19,00,03,4.80
2011,04,19,00,04,4.80
2011,04,19,00,05,4.80
2011,04,19,00,06,4.80
2011,04,19,00,07,4.80
2011,04,19,00,08,4.70
2011,04,19,00,09,4.70
2011,04,19,00,10,4.70
2011,04,19,00,11,4.60
2011,04,19,00,12,4.60
2011,04,19,00,13,4.60
2011,04,19,00,14,4.60
2011,04,19,00,15,4.60
2011,04,19,00,16,4.50
2011,04,19,00,17,4.50
2011,04,19,00,18,4.50
2011,04,19,00,19,4.50
2011,04,19,00,20,4.50
2011,04,19,00,21,4.40
2011,04,19,00,22,4.40
2011,04,19,00,23,4.40
2011,04,19,00,24,4.40
2011,04,19,00,25,4.40
2011,04,19,00,26,4.40
2011,04,19,00,27,4.40
2011,04,19,00,28,4.40
2011,04,19,00,29,4.40
2011,04,19,00,30,4.40
2011,04,19,00,31,4.40
2011,04,19,00,32,4.40
2011,04,19,00,33,4.40
2011,04,19,00,34,4.30
2011,04,19,00,35,4.30
2011,04,19,00,36,4.30
2011,04,19,00,37,4.30
2011,04,19,00,38,4.30
2011,04,19,00,39,4.30
2011,04,19,00,40,4.30
2011,04,19,00,41,4.30
2011,04,19,00,42,4.30
2011,04,19,00,43,4.30
2011,04,19,00,44,4.20
2011,04,19,00,45,4.20
2011,04,19,00,46,4.20
2011,04,19,00,47,4.20
2011,04,19,00,48,4.20
2011,04,19,00,49,4.20
2011,04,19,00,50,4.20
2011,04,19,00,51,4.20
2011,04,19,00,52,4.20
2011,04,19,00,53,4.20
2011,04,19,00,54,4.20
2011,04,19,00,55,4.20
2011,04,19,00,56,4.20
2011,04,19,00,57,4.20
2011,04,19,00,58,4.20
2011,04,19,00,59,4.20
2011,04,19,01,00,4.20
2011,04,19,01,01,4.20
2011,04,19,01,02,4.20
2011,04,19,01,03,4.20
2011,04,19,01,04,4.20
2011,04,19,01,05,4.20
2011,04,19,01,06,4.20
2011,04,19,01,07,4.20
2011,04,19,01,08,4.20
2011,04,19,01,09,4.20
2011,04,19,01,10,4.20
2011,04,19,01,11,4.20
2011,04,19,01,12,4.10
2011,04,19,01,13,4.10
2011,04,19,01,14,4.10
2011,04,19,01,15,4.10
2011,04,19,01,16,4.10
2011,04,19,01,17,4.10
2011,04,19,01,18,4.10
2011,04,19,01,19,4.10
2011,04,19,01,20,4.10
2011,04,19,01,21,4.10
2011,04,19,01,22,4.10
2011,04,19,01,23,4.10
2011,04,19,01,24,4.10
2011,04,19,01,25,4.10
2011,04,19,01,26,4.10
2011,04,19,01,27,4.00
2011,04,19,01,28,4.00
2011,04,19,01,29,4.00
2011,04,19,01,30,4.00
2011,04,19,01,31,4.00
2011,04,19,01,32,4.00
2011,04,19,01,33,3.90
2011,04,19,01,34,3.90
2011,04,19,01,35,3.90
2011,04,19,01,36,3.90
2011,04,19,01,37,3.90
2011,04,19,01,38,3.90
2011,04,19,01,39,3.90
2011,04,19,01,40,3.90
2011,04,19,01,41,3.90
2011,04,19,01,42,3.90
2011,04,19,01,43,3.90
2011,04,19,01,44,3.90
2011,04,19,01,45,3.90
2011,04,19,01,46,3.90
2011,04,19,01,47,3.80
2011,04,19,01,48,3.80
2011,04,19,01,49,3.80
2011,04,19,01,50,3.80
2011,04,19,01,51,3.80
2011,04,19,01,52,3.80
2011,04,19,01,53,3.80
2011,04,19,01,54,3.80
2011,04,19,01,55,3.80
2011,04,19,01,56,3.80
2011,04,19,01,57,3.80
2011,04,19,01,58,3.80
2011,04,19,01,59,3.80
2011,04,19,02,00,3.80
2011,04,19,02,01,3.80
2011,04,19,02,02,3.80
2011,04,19,02,03,3.80
2011,04,19,02,04,3.80
2011,04,19,02,05,3.80
2011,04,19,02,06,3.80
2011,04,19,02,07,3.70
2011,04,19,02,08,3.70
2011,04,19,02,09,3.70
2011,04,19,02,10,3.70
2011,04,19,02,11,3.70
2011,04,19,02,12,3.70
2011,04,19,02,13,3.70
2011,04,19,02,14,3.70
2011,04,19,02,15,3.70
2011,04,19,02,16,3.70
2011,04,19,02,17,3.70
2011,04,19,02,18,3.70
2011,04,19,02,19,3.70
2011,04,19,02,20,3.70
2011,04,19,02,21,3.70
2011,04,19,02,22,3.70
2011,04,19,02,23,3.70
2011,04,19,02,24,3.70
2011,04,19,02,25,3.70
2011,04,19,02,26,3.70
2011,04,19,02,27,3.70
2011,04,19,02,28,3.60
2011,04,19,02,29,3.60
2011,04,19,02,30,3.60
2011,04,19,02,31,3.60
2011,04,19,02,32,3.60
2011,04,19,02,33,3.60
2011,04,19,02,34,3.60
2011,04,19,02,35,3.60
2011,04,19,02,36,3.60
2011,04,19,02,37,3.60
2011,04,19,02,38,3.60
2011,04,19,02,39,3.60
2011,04,19,02,40,3.60
2011,04,19,02,41,3.60
2011,04,19,02,42,3.60
2011,04,19,02,43,3.60
2011,04,19,02,44,3.60
2011,04,19,02,45,3.60
2011,04,19,02,46,3.60
2011,04,19,02,47,3.60
2011,04,19,02,48,3.60
2011,04,19,02,49,3.60
2011,04,19,02,50,3.60
2011,04,19,02,51,3.60
2011,04,19,02,52,3.50
2011,04,19,02,53,3.50
2011,04,19,02,54,3.50
2011,04,19,02,55,3.50
2011,04,19,02,56,3.50
2011,04,19,02,57,3.50
2011,04,19,02,58,3.50
2011,04,19,02,59,3.50
2011,04,19,03,00,3.40
2011,04,19,03,01,3.40
2011,04,19,03,02,3.40
2011,04,19,03,03,3.40
2011,04,19,03,04,3.40
2011,04,19,03,05,3.40
2011,04,19,03,06,3.40
2011,04,19,03,07,3.30
2011,04,19,03,08,3.30
2011,04,19,03,09,3.30
2011,04,19,03,10,3.30
2011,04,19,03,11,3.30
2011,04,19,03,12,3.30
2011,04,19,03,13,3.30
2011,04,19,03,14,3.30
2011,04,19,03,15,3.30
2011,04,19,03,16,3.30
2011,04,19,03,17,3.20
2011,04,19,03,18,3.20
2011,04,19,03,19,3.20
2011,04,19,03,20,3.20
2011,04,19,03,21,3.20
2011,04,19,03,22,3.20
2011,04,19,03,23,3.20
2011,04,19,03,24,3.20
2011,04,19,03,25,3.20
2011,04,19,03,26,3.20
2011,04,19,03,27,3.20
2011,04,19,03,28,3.20
2011,04,19,03,29,3.20
2011,04,19,03,30,3.20
2011,04,19,03,31,3.10
2011,04,19,03,32,3.10
2011,04,19,03,33,3.10
2011,04,19,03,34,3.10
2011,04,19,03,35,3.10
2011,04,19,03,36,3.10
2011,04,19,03,37,3.10
2011,04,19,03,38,3.10
2011,04,19,03,39,3.10
2011,04,19,03,40,3.10
2011,04,19,03,41,3.10
2011,04,19,03,42,3.10
2011,04,19,03,43,3.10
2011,04,19,03,44,3.10
2011,04,19,03,45,3.10
2011,04,19,03,46,3.10
2011,04,19,03,47,3.10
2011,04,19,03,48,3.10
2011,04,19,03,49,3.10
2011,04,19,03,50,3.10
2011,04,19,03,51,3.10
2011,04,19,03,52,3.10
2011,04,19,03,53,3.10
2011,04,19,03,54,3.10
2011,04,19,03,55,3.10
2011,04,19,03,56,3.20
2011,04,19,03,57,3.20
2011,04,19,03,58,3.20
2011,04,19,03,59,3.20
2011,04,19,04,00,3.20
2011,04,19,04,01,3.20
2011,04,19,04,02,3.10
2011,04,19,04,03,3.10
2011,04,19,04,04,3.10
2011,04,19,04,05,3.10
2011,04,19,04,06,3.10
2011,04,19,04,07,3.10
2011,04,19,04,08,3.10
2011,04,19,04,09,3.10
2011,04,19,04,10,3.10
2011,04,19,04,11,3.10
2011,04,19,04,12,3.10
2011,04,19,04,13,3.10
2011,04,19,04,14,3.10
2011,04,19,04,15,3.10
2011,04,19,04,16,3.10
2011,04,19,04,17,3.10
2011,04,19,04,18,3.10
2011,04,19,04,19,3.10
2011,04,19,04,20,3.10
2011,04,19,04,21,3.10
2011,04,19,04,22,3.10
2011,04,19,04,23,3.10
2011,04,19,04,24,3.10
2011,04,19,04,25,3.10
2011,04,19,04,26,3.10
2011,04,19,04,27,3.10
2011,04,19,04,28,3.10
2011,04,19,04,29,3.10
2011,04,19,04,30,3.10
2011,04,19,04,31,3.10
2011,04,19,04,32,3.10
2011,04,19,04,33,3.10
2011,04,19,04,34,3.10
2011,04,19,04,35,3.10
2011,04,19,04,36,3.10
2011,04,19,04,37,3.10
2011,04,19,04,38,3.10
2011,04,19,04,39,3.10
2011,04,19,04,40,3.20
2011,04,19,04,41,3.20
2011,04,19,04,42,3.20
2011,04,19,04,43,3.20
2011,04,19,04,44,3.20
2011,04,19,04,45,3.20
2011,04,19,04,46,3.20
2011,04,19,04,47,3.20
2011,04,19,04,48,3.20
2011,04,19,04,49,3.20
2011,04,19,04,50,3.20
2011,04,19,04,51,3.20
2011,04,19,04,52,3.20
2011,04,19,04,53,3.20
2011,04,19,04,54,3.20
2011,04,19,04,55,3.20
2011,04,19,04,56,3.20
2011,04,19,04,57,3.20
2011,04,19,04,58,3.20
2011,04,19,04,59,3.20
2011,04,19,05,00,3.20
2011,04,19,05,01,3.20
2011,04,19,05,02,3.20
2011,04,19,05,03,3.20
2011,04,19,05,04,3.20
2011,04,19,05,05,3.20
2011,04,19,05,06,3.20
2011,04,19,05,07,3.20
2011,04,19,05,08,3.20
2011,04,19,05,09,3.20
2011,04,19,05,10,3.20
2011,04,19,05,11,3.20
2011,04,19,05,12,3.20
2011,04,19,05,13,3.20
2011,04,19,05,14,3.20
2011,04,19,05,15,3.20
2011,04,19,05,16,3.20
2011,04,19,05,17,3.20
2011,04,19,05,18,3.20
2011,04,19,05,19,3.20
2011,04,19,05,20,3.20
2011,04,19,05,21,3.20
2011,04,19,05,22,3.20
2011,04,19,05,23,3.20
2011,04,19,05,24,3.10
2011,04,19,05,25,3.10
2011,04,19,05,26,3.10
2011,04,19,05,27,3.20
2011,04,19,05,28,3.20
2011,04,19,05,29,3.20
2011,04,19,05,30,3.10
2011,04,19,05,31,3.10
2011,04,19,05,32,3.10
2011,04,19,05,33,3.10
2011,04,19,05,34,3.10
2011,04,19,05,35,3.10
2011,04,19,05,36,3.10
2011,04,19,05,37,3.10
2011,04,19,05,38,3.10
2011,04,19,05,39,3.10
2011,04,19,05,40,3.10
2011,04,19,05,41,3.10
2011,04,19,05,42,3.10
2011,04,19,05,43,3.10
2011,04,19,05,44,3.10
2011,04,19,05,45,3.10
2011,04,19,05,46,3.10
2011,04,19,05,47,3.10
2011,04,19,05,48,3.10
2011,04,19,05,49,3.10
2011,04,19,05,50,3.10
2011,04,19,05,51,3.10
2011,04,19,05,52,3.10
2011,04,19,05,53,3.10
2011,04,19,05,54,3.10
2011,04,19,05,55,3.10
2011,04,19,05,56,3.10
2011,04,19,05,57,3.10
2011,04,19,05,58,3.10
2011,04,19,05,59,3.10
2011,04,19,06,00,3.10
2011,04,19,06,01,3.10
2011,04,19,06,02,3.00
2011,04,19,06,03,3.00
2011,04,19,06,04,3.00
2011,04,19,06,05,3.00
2011,04,19,06,06,3.00
2011,04,19,06,07,3.00
2011,04,19,06,08,3.00
2011,04,19,06,09,2.90
2011,04,19,06,10,2.90
2011,04,19,06,11,2.90
2011,04,19,06,12,2.90
2011,04,19,06,13,2.90
2011,04,19,06,14,2.90
2011,04,19,06,15,2.80
2011,04,19,06,16,2.80
2011,04,19,06,17,2.80
2011,04,19,06,18,2.80
2011,04,19,06,19,2.80
2011,04,19,06,20,2.80
2011,04,19,06,21,2.80
2011,04,19,06,22,2.80
2011,04,19,06,23,2.80
2011,04,19,06,24,2.80
2011,04,19,06,25,2.80
2011,04,19,06,26,2.80
2011,04,19,06,27,2.80
2011,04,19,06,28,2.80
2011,04,19,06,29,2.70
2011,04,19,06,30,2.80
2011,04,19,06,31,2.70
2011,04,19,06,32,2.70
2011,04,19,06,33,2.70
2011,04,19,06,34,2.70
2011,04,19,06,35,2.70
2011,04,19,06,36,2.70
2011,04,19,06,37,2.70
2011,04,19,06,38,2.70
2011,04,19,06,39,2.70
2011,04,19,06,40,2.70
2011,04,19,06,41,2.70
2011,04,19,06,42,2.70
2011,04,19,06,43,2.70
2011,04,19,06,44,2.70
2011,04,19,06,45,2.70
2011,04,19,06,46,2.70
2011,04,19,06,47,2.60
2011,04,19,06,48,2.60
2011,04,19,06,49,2.60
2011,04,19,06,50,2.60
2011,04,19,06,51,2.60
2011,04,19,06,52,2.60
2011,04,19,06,53,2.60
2011,04,19,06,54,2.60
2011,04,19,06,55,2.60
2011,04,19,06,56,2.60
2011,04,19,06,57,2.60
2011,04,19,06,58,2.60
2011,04,19,06,59,2.60
2011,04,19,07,00,2.60
2011,04,19,07,01,2.50
2011,04,19,07,02,2.50
2011,04,19,07,03,2.50
2011,04,19,07,04,2.60
2011,04,19,07,05,2.50
2011,04,19,07,06,2.60
2011,04,19,07,07,2.60
2011,04,19,07,08,2.60
2011,04,19,07,09,2.60
2011,04,19,07,10,2.60
2011,04,19,07,11,2.60
2011,04,19,07,12,2.60
2011,04,19,07,13,2.60
2011,04,19,07,14,2.60
2011,04,19,07,15,2.70
2011,04,19,07,16,2.70
2011,04,19,07,17,2.70
2011,04,19,07,18,2.70
2011,04,19,07,19,2.70
2011,04,19,07,20,2.70
2011,04,19,07,21,2.70
2011,04,19,07,22,2.70
2011,04,19,07,23,2.70
2011,04,19,07,24,2.70
2011,04,19,07,25,2.70
2011,04,19,07,26,2.70
2011,04,19,07,27,2.70
2011,04,19,07,28,2.70
2011,04,19,07,29,2.70
2011,04,19,07,30,2.70
2011,04,19,07,31,2.70
2011,04,19,07,32,2.70
2011,04,19,07,33,2.70
2011,04,19,07,34,2.70
2011,04,19,07,35,2.70
2011,04,19,07,36,2.70
2011,04,19,07,37,2.70
2011,04,19,07,38,2.70
2011,04,19,07,39,2.70
2011,04,19,07,40,2.70
2011,04,19,07,41,2.70
2011,04,19,07,42,2.70
2011,04,19,07,43,2.70
2011,04,19,07,44,2.70
2011,04,19,07,45,2.70
2011,04,19,07,46,2.70
2011,04,19,07,47,2.70
2011,04,19,07,48,2.70
2011,04,19,07,49,2.70
2011,04,19,07,50,2.70
2011,04,19,07,51,2.70
2011,04,19,07,52,2.70
2011,04,19,07,53,2.70
2011,04,19,07,54,2.70
2011,04,19,07,55,2.80
2011,04,19,07,56,2.80
2011,04,19,07,57,2.80
2011,04,19,07,58,2.80
2011,04,19,07,59,2.80
2011,04,19,08,00,2.80
2011,04,19,08,01,2.90
2011,04,19,08,02,2.90
2011,04,19,08,03,2.90
2011,04,19,08,04,2.90
2011,04,19,08,05,2.90
2011,04,19,08,06,3.00
2011,04,19,08,07,3.00
2011,04,19,08,08,3.00
2011,04,19,08,09,3.00
2011,04,19,08,10,3.10
2011,04,19,08,11,3.10
2011,04,19,08,12,3.20
2011,04,19,08,13,3.20
2011,04,19,08,14,3.20
2011,04,19,08,15,3.20
2011,04,19,08,16,3.20
2011,04,19,08,17,3.20
2011,04,19,08,18,3.20
2011,04,19,08,19,3.20
2011,04,19,08,20,3.20
2011,04,19,08,21,3.20
2011,04,19,08,22,3.20
2011,04,19,08,23,3.20
2011,04,19,08,24,3.20
2011,04,19,08,25,3.20
2011,04,19,08,26,3.20
2011,04,19,08,27,3.20
2011,04,19,08,28,3.20
2011,04,19,08,29,3.20
2011,04,19,08,30,3.20
2011,04,19,08,31,3.20
2011,04,19,08,32,3.20
2011,04,19,08,33,3.30
2011,04,19,08,34,3.30
2011,04,19,08,35,3.30
2011,04,19,08,36,3.30
2011,04,19,08,37,3.30
2011,04,19,08,38,3.30
2011,04,19,08,39,3.30
2011,04,19,08,40,3.30
2011,04,19,08,41,3.40
2011,04,19,08,42,3.40
2011,04,19,08,43,3.40
2011,04,19,08,44,3.40
2011,04,19,08,45,3.40
2011,04,19,08,46,3.40
2011,04,19,08,47,3.50
2011,04,19,08,48,3.50
2011,04,19,08,49,3.50
2011,04,19,08,50,3.60
2011,04,19,08,51,3.60
2011,04,19,08,52,3.60
2011,04,19,08,53,3.70
2011,04,19,08,54,3.70
2011,04,19,08,55,3.70
2011,04,19,08,56,3.70
2011,04,19,08,57,3.80
2011,04,19,08,58,3.80
2011,04,19,08,59,3.80
2011,04,19,09,00,3.80
2011,04,19,09,01,3.90
2011,04,19,09,02,3.90
2011,04,19,09,03,3.90
2011,04,19,09,04,3.90
2011,04,19,09,05,4.00
2011,04,19,09,06,4.00
2011,04,19,09,07,4.00
2011,04,19,09,08,4.00
2011,04,19,09,09,4.00
2011,04,19,09,10,4.00
2011,04,19,09,11,4.10
2011,04,19,09,12,4.10
2011,04,19,09,13,4.10
2011,04,19,09,14,4.10
2011,04,19,09,15,4.10
2011,04,19,09,16,4.20
2011,04,19,09,17,4.20
2011,04,19,09,18,4.20
2011,04,19,09,19,4.20
2011,04,19,09,20,4.30
2011,04,19,09,21,4.30
2011,04,19,09,22,4.30
2011,04,19,09,23,4.30
2011,04,19,09,24,4.30
2011,04,19,09,25,4.30
2011,04,19,09,26,4.40
2011,04,19,09,27,4.40
2011,04,19,09,28,4.40
2011,04,19,09,29,4.50
2011,04,19,09,30,4.50
2011,04,19,09,31,4.60
2011,04,19,09,32,4.60
2011,04,19,09,33,4.60
2011,04,19,09,34,4.60
2011,04,19,09,35,4.60
2011,04,19,09,36,4.70
2011,04,19,09,37,4.70
2011,04,19,09,38,4.70
2011,04,19,09,39,4.70
2011,04,19,09,40,4.70
2011,04,19,09,41,4.70
2011,04,19,09,42,4.70
2011,04,19,09,43,4.80
2011,04,19,09,44,4.80
2011,04,19,09,45,4.80
2011,04,19,09,46,4.80
2011,04,19,09,47,4.80
2011,04,19,09,48,4.80
2011,04,19,09,49,4.90
2011,04,19,09,50,4.90
2011,04,19,09,51,4.90
2011,04,19,09,52,4.90
2011,04,19,09,53,4.90
2011,04,19,09,54,4.90
2011,04,19,09,55,4.90
2011,04,19,09,56,4.90
2011,04,19,09,57,5.00
2011,04,19,09,58,5.00
2011,04,19,09,59,5.10
2011,04,19,10,00,5.10
2011,04,19,10,01,5.20
2011,04,19,10,02,5.20
2011,04,19,10,03,5.30
2011,04,19,10,04,5.30
2011,04,19,10,05,5.30
2011,04,19,10,06,5.40
2011,04,19,10,07,5.40
2011,04,19,10,08,5.50
2011,04,19,10,09,5.60
2011,04,19,10,10,5.60
2011,04,19,10,11,5.60
2011,04,19,10,12,5.70
2011,04,19,10,13,5.70
2011,04,19,10,14,5.70
2011,04,19,10,15,5.80
2011,04,19,10,16,5.80
2011,04,19,10,17,5.80
2011,04,19,10,18,5.80
2011,04,19,10,19,5.90
2011,04,19,10,20,5.90
2011,04,19,10,21,6.00
2011,04,19,10,22,6.10
2011,04,19,10,23,6.20
2011,04,19,10,24,6.30
2011,04,19,10,25,6.40
2011,04,19,10,26,6.50
2011,04,19,10,27,6.70
2011,04,19,10,28,6.80
2011,04,19,10,29,7.00
2011,04,19,10,30,7.10
2011,04,19,10,31,7.20
2011,04,19,10,32,7.30
2011,04,19,10,33,7.40
2011,04,19,10,34,7.50
2011,04,19,10,35,7.50
2011,04,19,10,36,7.50
2011,04,19,10,37,7.50
2011,04,19,10,38,7.50
2011,04,19,10,39,7.60
2011,04,19,10,40,7.60
2011,04,19,10,41,7.60
2011,04,19,10,42,7.70
2011,04,19,10,43,7.80
2011,04,19,10,44,7.90
2011,04,19,10,45,7.90
2011,04,19,10,46,7.90
2011,04,19,10,47,7.80
2011,04,19,10,48,7.80
2011,04,19,10,49,7.70
2011,04,19,10,50,7.70
2011,04,19,10,51,7.80
2011,04,19,10,52,7.80
2011,04,19,10,53,7.80
2011,04,19,10,54,7.80
2011,04,19,10,55,7.90
2011,04,19,10,56,7.90
2011,04,19,10,57,7.90
2011,04,19,10,58,8.00
2011,04,19,10,59,8.10
2011,04,19,11,00,8.10
2011,04,19,11,01,8.10
2011,04,19,11,02,8.20
2011,04,19,11,03,8.20
2011,04,19,11,04,8.20
2011,04,19,11,05,8.30
2011,04,19,11,06,8.30
2011,04,19,11,07,8.40
2011,04,19,11,08,8.40
2011,04,19,11,09,8.50
2011,04,19,11,10,8.60
2011,04,19,11,11,8.60
2011,04,19,11,12,8.60
2011,04,19,11,13,8.70
2011,04,19,11,14,8.70
2011,04,19,11,15,8.70
2011,04,19,11,16,8.70
2011,04,19,11,17,8.70
2011,04,19,11,18,8.80
2011,04,19,11,19,8.80
2011,04,19,11,20,8.80
2011,04,19,11,21,8.80
2011,04,19,11,22,8.80
2011,04,19,11,23,8.80
2011,04,19,11,24,8.80
2011,04,19,11,25,8.80
2011,04,19,11,26,8.90
2011,04,19,11,27,8.90
2011,04,19,11,28,9.00
2011,04,19,11,29,9.00
2011,04,19,11,30,9.00
2011,04,19,11,31,9.10
2011,04,19,11,32,9.10
2011,04,19,11,33,9.10
2011,04,19,11,34,9.10
2011,04,19,11,35,9.10
2011,04,19,11,36,9.30
2011,04,19,11,37,9.40
2011,04,19,11,38,9.50
2011,04,19,11,39,9.50
2011,04,19,11,40,9.50
2011,04,19,11,41,9.40
2011,04,19,11,42,9.40
2011,04,19,11,43,9.40
2011,04,19,11,44,9.40
2011,04,19,11,45,9.40
2011,04,19,11,46,9.50
2011,04,19,11,47,9.50
2011,04,19,11,48,9.50
2011,04,19,11,49,9.50
2011,04,19,11,50,9.60
2011,04,19,11,51,9.60
2011,04,19,11,52,9.60
2011,04,19,11,53,9.70
2011,04,19,11,54,9.70
2011,04,19,11,55,9.80
2011,04,19,11,56,9.80
2011,04,19,11,57,9.90
2011,04,19,11,58,10.00
2011,04,19,11,59,10.10
2011,04,19,12,00,10.20
2011,04,19,12,01,10.20
2011,04,19,12,02,10.20
2011,04,19,12,03,10.20
2011,04,19,12,04,10.10
2011,04,19,12,05,10.10
2011,04,19,12,06,10.10
2011,04,19,12,07,10.10
2011,04,19,12,08,10.10
2011,04,19,12,09,10.10
2011,04,19,12,10,10.10
2011,04,19,12,11,10.20
2011,04,19,12,12,10.30
2011,04,19,12,13,10.40
2011,04,19,12,14,10.60
2011,04,19,12,15,10.80
2011,04,19,12,16,10.80
2011,04,19,12,17,10.80
2011,04,19,12,18,10.70
2011,04,19,12,19,10.60
2011,04,19,12,20,10.60
2011,04,19,12,21,10.50
2011,04,19,12,22,10.40
2011,04,19,12,23,10.50
2011,04,19,12,24,10.50
2011,04,19,12,25,10.60
2011,04,19,12,26,10.60
2011,04,19,12,27,10.50
2011,04,19,12,28,10.50
2011,04,19,12,29,10.60
2011,04,19,12,30,10.60
2011,04,19,12,31,10.60
2011,04,19,12,32,10.60
2011,04,19,12,33,10.60
2011,04,19,12,34,10.60
2011,04,19,12,35,10.60
2011,04,19,12,36,10.60
2011,04,19,12,37,10.60
2011,04,19,12,38,10.60
2011,04,19,12,39,10.60
2011,04,19,12,40,10.50
2011,04,19,12,41,10.50
2011,04,19,12,42,10.40
2011,04,19,12,43,10.40
2011,04,19,12,44,10.50
2011,04,19,12,45,10.50
2011,04,19,12,46,10.50
2011,04,19,12,47,10.60
2011,04,19,12,48,10.60
2011,04,19,12,49,10.70
2011,04,19,12,50,10.60
2011,04,19,12,51,10.60
2011,04,19,12,52,10.60
2011,04,19,12,53,10.70
2011,04,19,12,54,10.80
2011,04,19,12,55,10.90
2011,04,19,12,56,10.90
2011,04,19,12,57,10.90
2011,04,19,12,58,10.90
2011,04,19,12,59,10.90
2011,04,19,13,00,10.80
2011,04,19,13,01,10.90
2011,04,19,13,02,11.00
2011,04,19,13,03,11.00
2011,04,19,13,04,11.10
2011,04,19,13,05,11.10
2011,04,19,13,06,11.10
2011,04,19,13,07,11.00
2011,04,19,13,08,11.00
2011,04,19,13,09,11.10
2011,04,19,13,10,11.10
2011,04,19,13,11,11.20
2011,04,19,13,12,11.20
2011,04,19,13,13,11.30
2011,04,19,13,14,11.30
2011,04,19,13,15,11.30
2011,04,19,13,16,11.30
2011,04,19,13,17,11.20
2011,04,19,13,18,11.20
2011,04,19,13,19,11.20
2011,04,19,13,20,11.10
2011,04,19,13,21,11.10
2011,04,19,13,22,11.10
2011,04,19,13,23,11.20
2011,04,19,13,24,11.10
2011,04,19,13,25,11.00
2011,04,19,13,26,10.80
2011,04,19,13,27,10.80
2011,04,19,13,28,10.80
2011,04,19,13,29,10.90
2011,04,19,13,30,10.90
2011,04,19,13,31,10.90
2011,04,19,13,32,10.80
2011,04,19,13,33,10.70
2011,04,19,13,34,10.70
2011,04,19,13,35,10.80
2011,04,19,13,36,10.80
2011,04,19,13,37,10.80
2011,04,19,13,38,10.80
2011,04,19,13,39,10.90
2011,04,19,13,40,11.00
2011,04,19,13,41,11.10
2011,04,19,13,42,11.10
2011,04,19,13,43,11.20
2011,04,19,13,44,11.30
2011,04,19,13,45,11.30
2011,04,19,13,46,11.40
2011,04,19,13,47,11.40
2011,04,19,13,48,11.30
2011,04,19,13,49,11.20
2011,04,19,13,50,11.20
2011,04,19,13,51,11.10
2011,04,19,13,52,11.10
2011,04,19,13,53,11.00
2011,04,19,13,54,10.90
2011,04,19,13,55,10.80
2011,04,19,13,56,10.70
2011,04,19,13,57,10.70
2011,04,19,13,58,10.70
2011,04,19,13,59,10.50
2011,04,19,14,00,10.40
2011,04,19,14,01,10.40
2011,04,19,14,02,10.30
2011,04,19,14,03,10.20
2011,04,19,14,04,10.00
2011,04,19,14,05,9.80
2011,04,19,14,06,9.70
2011,04,19,14,07,9.70
2011,04,19,14,08,9.60
2011,04,19,14,09,9.40
2011,04,19,14,10,9.20
2011,04,19,14,11,9.10
2011,04,19,14,12,8.90
2011,04,19,14,13,8.80
2011,04,19,14,14,8.70
2011,04,19,14,15,8.60
2011,04,19,14,16,8.60
2011,04,19,14,17,8.60
2011,04,19,14,18,8.60
2011,04,19,14,19,8.60
2011,04,19,14,20,8.60
2011,04,19,14,21,8.50
2011,04,19,14,22,8.50
2011,04,19,14,23,8.50
2011,04,19,14,24,8.50
2011,04,19,14,25,8.50
2011,04,19,14,26,8.60
2011,04,19,14,27,8.60
2011,04,19,14,28,8.60
2011,04,19,14,29,8.70
2011,04,19,14,30,8.80
2011,04,19,14,31,8.80
2011,04,19,14,32,8.80
2011,04,19,14,33,8.80
2011,04,19,14,34,8.80
2011,04,19,14,35,8.90
2011,04,19,14,36,8.90
2011,04,19,14,37,8.90
2011,04,19,14,38,9.00
2011,04,19,14,39,9.00
2011,04,19,14,40,9.00
2011,04,19,14,41,9.00
2011,04,19,14,42,9.10
2011,04,19,14,43,9.10
2011,04,19,14,44,9.10
2011,04,19,14,45,9.10
2011,04,19,14,46,9.10
2011,04,19,14,47,9.10
2011,04,19,14,48,9.10
2011,04,19,14,49,9.10
2011,04,19,14,50,9.00
2011,04,19,14,51,9.00
2011,04,19,14,52,8.90
2011,04,19,14,53,8.80
2011,04,19,14,54,8.70
2011,04,19,14,55,8.60
2011,04,19,14,56,8.30
2011,04,19,14,57,8.20
2011,04,19,14,58,8.00
2011,04,19,14,59,7.90
2011,04,19,15,00,7.80
2011,04,19,15,01,7.60
2011,04,19,15,02,7.50
2011,04,19,15,03,7.50
2011,04,19,15,04,7.40
2011,04,19,15,05,7.40
2011,04,19,15,06,7.40
2011,04,19,15,07,7.40
2011,04,19,15,08,7.40
2011,04,19,15,09,7.30
2011,04,19,15,10,7.30
2011,04,19,15,11,7.20
2011,04,19,15,12,7.20
2011,04,19,15,13,7.10
2011,04,19,15,14,7.00
2011,04,19,15,15,7.00
2011,04,19,15,16,6.90
2011,04,19,15,17,6.90
2011,04,19,15,18,6.90
2011,04,19,15,19,6.90
2011,04,19,15,20,7.00
2011,04,19,15,21,7.00
2011,04,19,15,22,7.10
2011,04,19,15,23,7.10
2011,04,19,15,24,7.10
2011,04,19,15,25,7.10
2011,04,19,15,26,7.10
2011,04,19,15,27,7.10
2011,04,19,15,28,7.20
2011,04,19,15,29,7.20
2011,04,19,15,30,7.30
2011,04,19,15,31,7.30
2011,04,19,15,32,7.40
2011,04,19,15,33,7.40
2011,04,19,15,34,7.40
2011,04,19,15,35,7.40
2011,04,19,15,36,7.40
2011,04,19,15,37,7.40
2011,04,19,15,38,7.40
2011,04,19,15,39,7.40
2011,04,19,15,40,7.40
2011,04,19,15,41,7.40
2011,04,19,15,42,7.40
2011,04,19,15,43,7.50
2011,04,19,15,44,7.50
2011,04,19,15,45,7.50
2011,04,19,15,46,7.60
2011,04,19,15,47,7.60
2011,04,19,15,48,7.60
2011,04,19,15,49,7.60
2011,04,19,15,50,7.60
2011,04,19,15,51,7.60
2011,04,19,15,52,7.60
2011,04,19,15,53,7.60
2011,04,19,15,54,7.60
2011,04,19,15,55,7.60
2011,04,19,15,56,7.70
2011,04,19,15,57,7.60
2011,04,19,15,58,7.60
2011,04,19,15,59,7.60
2011,04,19,16,00,7.60
2011,04,19,16,01,7.70
2011,04,19,16,02,7.70
2011,04,19,16,03,7.80
2011,04,19,16,04,7.80
2011,04,19,16,05,7.80
2011,04,19,16,06,7.90
2011,04,19,16,07,7.90
2011,04,19,16,08,8.00
2011,04,19,16,09,8.10
2011,04,19,16,10,8.20
2011,04,19,16,11,8.30
2011,04,19,16,12,8.40
2011,04,19,16,13,8.40
2011,04,19,16,14,8.40
2011,04,19,16,15,8.50
2011,04,19,16,16,8.50
2011,04,19,16,17,8.50
2011,04,19,16,18,8.50
2011,04,19,16,19,8.50
2011,04,19,16,20,8.50
2011,04,19,16,21,8.40
2011,04,19,16,22,8.40
2011,04,19,16,23,8.40
2011,04,19,16,24,8.40
2011,04,19,16,25,8.40
2011,04,19,16,26,8.40
2011,04,19,16,27,8.40
2011,04,19,16,28,8.50
2011,04,19,16,29,8.50
2011,04,19,16,30,8.50
2011,04,19,16,31,8.50
2011,04,19,16,32,8.50
2011,04,19,16,33,8.50
2011,04,19,16,34,8.60
2011,04,19,16,35,8.60
2011,04,19,16,36,8.70
2011,04,19,16,37,8.80
2011,04,19,16,38,8.80
2011,04,19,16,39,8.90
2011,04,19,16,40,8.90
2011,04,19,16,41,9.00
2011,04,19,16,42,9.10
2011,04,19,16,43,9.10
2011,04,19,16,44,9.10
2011,04,19,16,45,9.10
2011,04,19,16,46,9.10
2011,04,19,16,47,9.10
2011,04,19,16,48,9.10
2011,04,19,16,49,9.10
2011,04,19,16,50,9.10
2011,04,19,16,51,9.10
2011,04,19,16,52,9.10
2011,04,19,16,53,9.10
2011,04,19,16,54,9.20
2011,04,19,16,55,9.20
2011,04,19,16,56,9.10
2011,04,19,16,57,9.10
2011,04,19,16,58,9.10
2011,04,19,16,59,9.10
2011,04,19,17,00,9.10
2011,04,19,17,01,9.20
2011,04,19,17,02,9.20
2011,04,19,17,03,9.20
2011,04,19,17,04,9.30
2011,04,19,17,05,9.30
2011,04,19,17,06,9.40
2011,04,19,17,07,9.40
2011,04,19,17,08,9.50
2011,04,19,17,09,9.60
2011,04,19,17,10,9.60
2011,04,19,17,11,9.60
2011,04,19,17,12,9.60
2011,04,19,17,13,9.60
2011,04,19,17,14,9.60
2011,04,19,17,15,9.60
2011,04,19,17,16,9.60
2011,04,19,17,17,9.60
2011,04,19,17,18,9.60
2011,04,19,17,19,9.50
2011,04,19,17,20,9.50
2011,04,19,17,21,9.50
2011,04,19,17,22,9.50
2011,04,19,17,23,9.50
2011,04,19,17,24,9.50
2011,04,19,17,25,9.60
2011,04,19,17,26,9.60
2011,04,19,17,27,9.60
2011,04,19,17,28,9.60
2011,04,19,17,29,9.60
2011,04,19,17,30,9.70
2011,04,19,17,31,9.70
2011,04,19,17,32,9.70
2011,04,19,17,33,9.90
2011,04,19,17,34,9.90
2011,04,19,17,35,10.00
2011,04,19,17,36,10.00
2011,04,19,17,37,10.10
2011,04,19,17,38,10.10
2011,04,19,17,39,10.10
2011,04,19,17,40,10.10
2011,04,19,17,41,10.20
2011,04,19,17,42,10.30
2011,04,19,17,43,10.30
2011,04,19,17,44,10.30
2011,04,19,17,45,10.30
2011,04,19,17,46,10.30
2011,04,19,17,47,10.40
2011,04,19,17,48,10.50
2011,04,19,17,49,10.60
2011,04,19,17,50,10.60
2011,04,19,17,51,10.60
2011,04,19,17,52,10.70
2011,04,19,17,53,10.70
2011,04,19,17,54,10.70
2011,04,19,17,55,10.70
2011,04,19,17,56,10.70
2011,04,19,17,57,10.70
2011,04,19,17,58,10.70
2011,04,19,17,59,10.70